カタログに戻る

CZ-2C DEB

運用中SSO
NORAD 40291·DEBRIS·🇨🇳 China

打ち上げ Oct 27, 2014 から Jiuquan Satellite Launch Center

Loading…

次のパス (今後24時間)

TLE

最新Source: Space-Track

元期: Sep 13, 2026, 21:22 UTC

1 40291U 14066F   26256.89093057  .00002126  00000-0  64928-3 0  9998
2 40291  98.2835 240.9591 0153638  11.6544 348.8134 14.36292730618441

AllMySatでCZ-2C DEBをリアルタイム追跡

Download on the App Store